Weather History for Al Udeid, Qatar

Change the Weather History Date:

Wednesday, March 12, 2014

  Actual Average Record
Temperature  
Mean Temperature 84 °F -  
Max Temperature 99 °F - - ()
Min Temperature 69 °F - - ()
Cooling Degree Days 19    
Growing Degree Days 34 (Base 50)    
Moisture  
Dew Point 51 °F    
Average Humidity 37    
Maximum Humidity 80    
Minimum Humidity 14    
Precipitation  
Precipitation 0.00 in - - ()
Sea Level Pressure  
Sea Level Pressure 29.79 in    
Wind  
Wind Speed 14 mph ()    
Max Wind Speed 33 mph    
Max Gust Speed 44 mph    
Visibility 4.1 miles    
Events      
T = Trace of Precipitation, MM = Missing Value Source: Averaged Metar Reports

Daily Weather History Graph

Daily Weather History Graph

Search for Another Location

Airport:

Trip Planner

Search our weather history database for the weather conditions in past years. The results will help you decide how hot, cold, wet, or windy it might be!

Date:

Astronomy

Mar. 12, 2014 Rise Set
Actual Time 5:47 AM AST 5:42 PM AST
Civil Twilight 5:24 AM AST 6:04 PM AST
Nautical Twilight 4:57 AM AST 6:31 PM AST
Astronomical Twilight 4:31 AM AST 6:58 PM AST
Moon 2:09 PM AST (3/12) 2:44 AM AST (3/12)
Length of Visible Light 12h 40m
Length of Day
11h 54m
Waxing Gibbous, 83% of the Moon is Illuminated
Mar 12
Waxing Gibbous
Mar 16
Full
Mar 24
Last Quarter
Mar 30
New
Apr 7
First Quarter

Hourly Weather History & Observations

Time (AST) Temp. Heat Index Dew Point Humidity Pressure Visibility Wind Dir Wind Speed Gust Speed Precip Events Conditions
12:58 AM 69.6 °F - 60.1 °F 72% 29.81 in 6.2 mi SE 8.1 mph - N/A   Clear
1:58 AM 69.4 °F - 60.1 °F 72% 29.81 in 6.2 mi SE 5.8 mph - N/A   Clear
2:58 AM 70.2 °F - 61.9 °F 75% 29.80 in 6.2 mi SE 8.1 mph - N/A   Clear
3:58 AM 70.3 °F - 64.0 °F 80% 29.80 in 6.2 mi South 10.4 mph - N/A   Partly Cloudy
4:58 AM 70.0 °F - 63.7 °F 80% 29.80 in 6.2 mi SE 11.5 mph - N/A   Partly Cloudy
5:58 AM 70.0 °F - 63.3 °F 79% 29.81 in 6.2 mi SE 11.5 mph - N/A   Clear
6:58 AM 72.3 °F - 63.7 °F 74% 29.80 in 6.2 mi ESE 9.2 mph - N/A   Clear
7:58 AM 76.1 °F - 60.3 °F 58% 29.83 in 6.2 mi SSE 10.4 mph - N/A   Clear
8:58 AM 83.5 °F - 51.4 °F 33% 29.84 in 6.2 mi South 17.3 mph - N/A   Clear
9:18 AM 87.8 °F - 46.4 °F 24% 29.84 in 3.7 mi South 21.9 mph - N/A   Widespread Dust
9:58 AM 90.7 °F - 46.0 °F 21% 29.84 in 3.1 mi South 24.2 mph 33.4 mph N/A   Widespread Dust
10:58 AM 93.2 °F - 44.6 °F 19% 29.81 in 3.1 mi South 26.5 mph 33.4 mph N/A   Widespread Dust
11:58 AM 97.0 °F - 44.1 °F 16% 29.78 in - South 26.5 mph 35.7 mph N/A   Widespread Dust
12:29 PM 98.6 °F - 42.8 °F 15% 29.75 in - South 26.5 mph 33.4 mph N/A   Widespread Dust
12:58 PM 98.2 °F - 42.4 °F 15% 29.75 in 5.0 mi South 20.7 mph 32.2 mph N/A   Widespread Dust
1:58 PM 99.0 °F - 42.6 °F 14% 29.72 in 5.0 mi SSW 23.0 mph 33.4 mph N/A   Widespread Dust
2:03 PM 98.6 °F - 42.8 °F 15% 29.71 in 2.5 mi South 20.7 mph 33.4 mph N/A   Haze
2:08 PM 98.6 °F - 42.8 °F 15% 29.71 in - South 23.0 mph 29.9 mph N/A   Haze
2:59 PM 99.1 °F - 41.5 °F 14% 29.72 in 5.6 mi SSW 17.3 mph 28.8 mph N/A   Widespread Dust
3:58 PM 98.4 °F - 42.1 °F 14% 29.72 in 6.2 mi South 18.4 mph 24.2 mph N/A   Clear
4:58 PM 97.0 °F - 41.0 °F 14% 29.73 in 6.2 mi SSW 12.7 mph - N/A   Clear
5:58 PM 91.4 °F - 41.4 °F 17% 29.74 in 6.2 mi SW 8.1 mph - N/A   Clear
6:58 PM 87.4 °F - 42.3 °F 21% 29.75 in 6.2 mi SSW 5.8 mph - N/A   Mostly Cloudy
7:58 PM 85.6 °F - 42.3 °F 22% 29.78 in 6.2 mi SSW 5.8 mph - N/A   Mostly Cloudy
8:44 PM 86.0 °F - 42.8 °F 22% 29.81 in 0.9 mi NW 19.6 mph 25.3 mph N/A   Widespread Dust
8:51 PM 86.0 °F - 51.8 °F 31% 29.80 in 0.7 mi North 25.3 mph - N/A   Widespread Dust
8:58 PM 86.7 °F 84.7 °F 53.4 °F 32% 29.81 in 0.7 mi North 24.2 mph - N/A   Widespread Dust
9:23 PM 86.0 °F 84.5 °F 55.4 °F 35% 29.82 in 0.6 mi North 23.0 mph 31.1 mph N/A   Haze
9:58 PM 85.3 °F - 51.6 °F 31% 29.83 in 0.6 mi North 25.3 mph 32.2 mph N/A   Widespread Dust
10:18 PM 84.2 °F 82.8 °F 53.6 °F 35% 29.83 in 0.7 mi North 26.5 mph 34.5 mph N/A   Widespread Dust
10:44 PM 78.8 °F - 60.8 °F 54% 29.84 in 0.7 mi North 33.4 mph 43.7 mph N/A   Widespread Dust
10:58 PM 78.8 °F - 60.8 °F 54% 29.86 in 0.6 mi NNW 31.1 mph 36.8 mph N/A   Widespread Dust
11:58 PM 75.7 °F - 59.7 °F 57% 29.86 in - NNW 25.3 mph 35.7 mph N/A   Widespread Dust